Regional Weather Roundup
Issued by NWS Goodland, KS

Home | Current Version | Previous Version | Text Only | Print | Product List | Glossary Off
Versions: 1 2 3 4 5 6 7 8 9 10 11 12 13 14 15 16 17 18 19 20 21 22 23 24 25 26 27 28 29 30 31 32 33 34 35 36 37 38 39 40 41 42 43 44 45 46 47 48 49 50

000
ASUS43 KGLD 251508
RWRGLD

GOODLAND FORECAST AREA HOURLY WEATHER ROUNDUP
NATIONAL WEATHER SERVICE GOODLAND KS
900 AM MDT TUE APR 25 2017

...OFFICIAL OBSERVATIONS...

CITY           SKY/WX    TMP DP  RH WIND       PRES   REMARKS
GOODLAND KS    CLOUDY    50  43  77 N17       29.54S
HILL CITY KS   CLOUDY    51  46  83 N21G28    29.52F
IMPERIAL NEB   CLOUDY    46  44  93 NE12      29.54S
MCCOOK NEB     CLOUDY    46  45  96 N15       29.53F
AKRON CO       CLOUDY    47  41  80 E3        29.56F
BURLINGTON CO  NOT AVBL
LIMON CO       CLOUDY    44  39  82 E5        29.59R
$$

...UNOFFICIAL OBSERVATIONS...

CITY           SKY/WX    TMP DP  RH WIND       PRES   REMARKS
LENORA KS        N/A     49  32  52 MISG        N/A
NORTON KS      CLOUDY    50  39  66 N17G26    29.52
SHARON SPRINGS   N/A     50  43  77 NE15G22     N/A
TRENTON NEB      N/A     45  32  60 N8          N/A
KIT CARSON CO    N/A     48  40  75 MISG        N/A
YUMA CO        PTSUNNY   46  41  81 NE3       29.57R
$$




USA.gov is the U.S. government's official web portal to all federal, state and local government web resources and services.